COSMOS 2463             
1 36519U 10017A   19264.55517366  .00000065  00000-0  54775-4 0  9996
2 36519  82.9566 257.2018 0037474 115.3903 245.1139 13.71437603470735
SL-8 R/B                
1 36520U 10017B   19264.48836595  .00000046  00000-0  32821-4 0  9995
2 36520  82.9569 251.5511 0027764 108.0861   3.0504 13.72770675471130